Regional Weather Roundup
Issued by NWS Kansas City/Pleasant Hill, MO

Home | Current Version | Previous Version | Text Only | Print | Product List | Glossary On
Versions: 1 2 3 4 5 6 7 8 9 10 11 12 13 14 15 16 17 18 19 20 21 22 23 24 25 26 27
000
ASUS43 KEAX 260710
RWREAX

WEATHER ROUNDUP FOR EASTERN KANSAS AND NORTHWEST MISSOURI
NATIONAL WEATHER SERVICE KANSAS CITY/PLEASANT HILL MO
200 AM CDT TUE JUL 26 2016

KSZ040-057-103>105-MOZ028-029-037-043-260800-
...KANSAS CITY METROPOLITAN AREA...

CITY           SKY/WX    TMP DP  RH WIND       PRES   REMARKS
K.C. INTL      MOCLDY    73  69  87 NE6       30.06S
K.C. DOWNTOWN  CLOUDY    78  68  71 E3        30.04S
LEES SUMMIT    CLOUDY    75  69  81 E3        30.06S
OLATHE - IXD   CLOUDY    76  69  79 E3        30.06S
OLATHE - OJC   CLOUDY    74  68  81 E5        30.06R
LAWRENCE       PTCLDY    71  67  87 CALM      30.05S

$$

MOZ001>008-011>017-020>025-030>033-038>040-044>046-053-054-260800-
...NORTHERN AND CENTRAL MISSOURI...

CITY           SKY/WX    TMP DP  RH WIND       PRES   REMARKS
ST. JOSEPH     CLEAR     69  65  86 N5        30.06S
MOSBY          MOSUNNY   70  68  94 CALM      30.05S
WHITEMAN AFB   MOCLDY    74  74 100 E1        30.04R
CLINTON        CLEAR     72  72 100 CALM      30.05R
SEDALIA        CLOUDY    73  70  90 CALM      30.06R
WARSAW         NOT AVBL
CHILLICOTHE      N/A     71  68  90 CALM      30.07S
KIRKSVILLE     CLEAR     64  63  96 N3        30.07S

$$

MOZ041-047>049-056>058-063>065-088>090-097-260800-
...EASTERN AND SOUTHERN MISSOURI...

CITY           SKY/WX    TMP DP  RH WIND       PRES   REMARKS
ST. LOUIS INTL CLOUDY    79  74  84 N5        30.01F
SPIRIT OF STL  CLOUDY    78  74  87 CALM      30.00F
COLUMBIA       CLEAR     70  69  97 NE5       30.04S
JEFFERSON CITY CLEAR     71  69  93 N3        30.03S
ROLLA          CLOUDY    72  70  93 CALM      30.03S
OSAGE BEACH    CLOUDY    73  71  93 E3        30.04S
SPRINGFIELD    CLEAR     74  70  87 CALM      30.04R
BRANSON        CLOUDY    73  72  94 CALM      30.04S
JOPLIN         CLOUDY    74  73  97 CALM      30.03F
WEST PLAINS    CLOUDY    76  72  87 CALM      30.05S

$$

IAZ060-094-KSZ022-034>040-054-083-096-NEZ052-066-093-260800-
...KANSAS...SOUTHEAST NEBRASKA AND IOWA...

CITY           SKY/WX    TMP DP  RH WIND       PRES   REMARKS
TOPEKA         MOCLDY    71  67  87 CALM      30.05F
MANHATTAN      CLEAR     68  66  93 CALM      30.07S
EMPORIA        CLOUDY    74  72  93 CALM      30.05F
CHANUTE        CLOUDY    76  73  91 NE5       30.03F
WICHITA        CLOUDY    77  72  84 E5        30.05F
OMAHA          PTCLDY    71  66  84 CALM      30.09S
LINCOLN        PTCLDY    66  63  90 N5        30.10F
FALLS CITY     PTCLDY    70  67  90 CALM      30.07S
LAMONI         CLEAR     67  64  90 N3        30.08S
DES MOINES     CLEAR     73  67  81 CALM      30.07S

$$





USA.gov is the U.S. government's official web portal to all federal, state and local government web resources and services.